Location: Crescent
(42.8242°N, 73.7329°W)
Time: 22:03:12
(UTC+00:00)

Vanguard 2 Rocket - Pass Details

Date: 19 February 2026
Orbit: 553 x 3286 km, 32.9° (Epoch: 9 March)

Event Time Altitude Azimuth Distance (km) Brightness Sun altitude
Rises 21:04:41 0° 272° (W) 6,734 12.4 13.9°
Reaches altitude 10° 21:09:59 10° 267° (W) 5,358 12.2 13.1°
Maximum altitude 21:23:06 42° 204° (SSW) 2,413 9.8 11.0°
Drops below altitude 10° 21:30:59 10° 136° (SE) 3,250 9.6 9.7°
Sets 21:33:25 0° 129° (SE) 3,931 9.9 9.3°
